Find Starlink 35112

NORAD ID: 65520 Int'l Des: 2025-200 Owner: SPXS Country: US Constellation: starlink operational
LEOCIRCULARRETROGRADESSO

現在のビュー

3D地球を読み込み中...

About Starlink 35112

Starlink 35112 (NORAD 65520) is a starlink constellation satellite (v2 mini) launched Sep 6, 2025 by SPXS of US. It operates in LEO, CIRCULAR, RETROGRADE, SSO orbit with a mass of 575.00 kg.

次回通過

Passes for default location (London). Set your location on the main map for personalized predictions.

高度履歴

Loading altitude history...

軌道要素

1 65520U 25200A 26263.94030863 .00015639 00000-0 48474-3 0 9993
2 65520 97.2854 330.3869 0006680 261.6203 98.4283 15.33490601 58703
Epoch: Sep 20, 2026 • Age: 6 hours

現在のステータス

高度 469.8 km
遠地点 / 近地点 N/A
速度 7.63 km/s
衛星直下点 16.19°N, 105.09°W
打ち上げ日 Sep 6, 2025
運用期間 1 year
タイプ internet

技術仕様

分類 Payload
質量 575.00 kg
乾燥質量 530.00 kg
長さ 0.30 m
スパン 29.00 m
形状 ? Box + pan
製造者 SPXS
バスタイプ Starlink V2MO
フェーズステータス In Orbit
所有者/国 SPXS/US

Most Searched